Location: Bun Machan
(52.1403°N, 7.3744°W)
Time: 18:13:17
(UTC+00:00)

Cosmos 1470 Rocket - Pass Details

Date: 14 July 2020
Orbit: 603 x 635 km, 82.5° (Epoch: 12 August)

Event Time Altitude Azimuth Distance (km) Brightness Sun altitude
Exits shadow 01:16:51 27° 177° (S) 1,219 4.5 -15.7°
Maximum altitude 01:19:14 73° 98° (E) 670 3.7 -15.6°
Drops below altitude 10° 01:23:44 10° 14° (NNE) 2,032 7.6 -15.5°
Sets 01:25:59 0° 13° (NNE) 2,943 9.0 -15.4°
